,

(GMT )
Monte Scuro

Weather History for LIBQ - September, 2013

Change the Weather History Date:

Wednesday, September 25, 2013

  Actual Average Record
Temperature  
Mean Temperature 56 °F -  
Max Temperature 61 °F 54 °F 73 °F (1999)
Min Temperature 51 °F 45 °F 41 °F (1996)
Degree Days  
Heating Degree Days 9    
Growing Degree Days 6 (Base 50)    
Moisture  
Dew Point 27 °F    
Average Humidity 35    
Maximum Humidity 72    
Minimum Humidity 5    
Precipitation  
Precipitation 0.00 in - - ()
Sea Level Pressure  
Sea Level Pressure 30.10 in    
Wind  
Wind Speed 4 mph ()    
Max Wind Speed 12 mph    
Max Gust Speed -    
Visibility 12.0 miles    
Events      
Averages and records for this station are not official NWS values.
T = Trace of Precipitation, MM = Missing Value Source: Averaged Metar Reports

Daily Weather History Graph

Daily Weather History Graph

Search for Another Location

Airport or City:

Trip Planner

Search our weather history database for the weather conditions in past years. The results will help you decide how hot, cold, wet, or windy it might be!

Date:

Astronomy

Sep. 25, 2013 Rise Set
Actual Time 6:44 AM CEST 6:46 PM CEST
Civil Twilight 6:18 AM CEST 7:13 PM CEST
Nautical Twilight 5:46 AM CEST 7:44 PM CEST
Astronomical Twilight 5:15 AM CEST 8:16 PM CEST
Moon 10:40 PM CEST (9/25) 12:34 PM CEST (9/25)
Length of Visible Light 12h 55m
Length of Day
12h 01m
Waning Gibbous, 66% of the Moon is Illuminated
Sep 25
Waning Gibbous
Sep 27
Last Quarter
Oct 5
New
Oct 12
First Quarter
Oct 19
Full

Hourly Weather History & Observations

Time (CEST) Temp. Dew Point Humidity Pressure Visibility Wind Dir Wind Speed Gust Speed Precip Events Conditions
12:55 AM 51.8 °F 24.8 °F 35% 30.12 in - NNE 8.1 mph - N/A   Clear
1:55 AM 51.8 °F 24.8 °F 35% 30.12 in - North 5.8 mph - N/A   Clear
2:00 AM 53 °F 26 °F 22%  in 9 mi North 5.8 mph - -  
2:55 AM 53.6 °F 14.0 °F 21% 30.09 in - SSE 3.5 mph - N/A   Clear
3:55 AM 53.6 °F 14.0 °F 21% 30.09 in - SSE 3.5 mph - N/A   Clear
4:55 AM 53.6 °F 14.0 °F 21% 30.09 in - SE 3.5 mph - N/A   Clear
5:00 AM 54 °F 13 °F 10%  in 9 mi SE 3.5 mph - -  
5:55 AM 53.6 °F 19.4 °F 26% 30.09 in - Calm Calm - N/A   Clear
6:55 AM 53.6 °F 21.2 °F 28% 30.09 in - Calm Calm - N/A   Clear
7:55 AM 53.6 °F 28.4 °F 38% 30.09 in - Calm Calm - N/A   Clear
8:00 AM 53 °F 28 °F 25%  in 9 mi Calm Calm - -  
8:55 AM 53.6 °F 28.4 °F 38% 30.09 in - WNW 2.3 mph - N/A   Clear
9:55 AM 55.4 °F 24.8 °F 31% 30.12 in - SW 3.5 mph - N/A   Clear
10:55 AM 59.0 °F 35.6 °F 42% 30.12 in - SW 3.5 mph - N/A   Clear
11:00 AM 59 °F 35 °F 28%  in 19 mi SW 3.5 mph - -  
11:55 AM 59.0 °F 39.2 °F 48% 30.12 in - Calm Calm - N/A   Clear
12:55 PM 59.0 °F 50.0 °F 72% 30.12 in - Calm Calm - N/A   Clear
1:55 PM 60.8 °F 50.0 °F 68% 30.12 in - WSW 4.6 mph - N/A   Clear
2:00 PM 61 °F 50 °F 59%  in 19 mi WSW 4.6 mph - -  
2:55 PM 60.8 °F 51.8 °F 72% 30.12 in - WSW 4.6 mph - N/A   Clear
3:55 PM 59.0 °F 46.4 °F 63% 30.12 in - West 8.1 mph - N/A   Clear
4:55 PM 59.0 °F 48.2 °F 67% 30.12 in - West 5.8 mph - N/A   Clear
5:00 PM 59 °F 47 °F 56%  in 19 mi West 5.8 mph - -  
5:55 PM 57.2 °F 46.4 °F 67% 30.09 in - West 9.2 mph - N/A   Clear
6:55 PM 55.4 °F 30.2 °F 38% 30.09 in - WSW 9.2 mph - N/A   Clear
7:55 PM 55.4 °F 17.6 °F 23% 30.09 in - West 6.9 mph - N/A   Clear
8:00 PM 55 °F 18 °F 12%  in 6 mi West 6.9 mph - -  
8:55 PM 53.6 °F 5.0 °F 14% 30.09 in - West 9.2 mph - N/A   Clear
9:55 PM 55.4 °F -0.4 °F 10% 30.09 in - West 11.5 mph - N/A   Clear
10:55 PM 53.6 °F 3.2 °F 13% 30.09 in - West 6.9 mph - N/A   Clear
11:00 PM 54 °F 2 °F 5%  in 6 mi West 6.9 mph - -  
11:55 PM 53.6 °F 5.0 °F 14% 30.09 in - West 9.2 mph - N/A   Clear